Find Starlink 37117

NORAD ID: 68212 Int'l Des: 2026-053 Owner: SPXS Country: US Constellation: starlink operational
LEOCIRCULARRETROGRADE

实时位置

正在加载3D地球...

关于 Starlink 37117

正在加载描述...

即将过境

Passes for default location (London). Set your location on the main map for personalized predictions.

高度历史

Loading altitude history...

两行轨道根数

1 68212U 26053F 26122.17903468 .00009843 00000-0 30685-3 0 9995
2 68212 97.2844 357.9273 0001898 99.4393 260.7064 15.33438767 8419
Epoch: May 2, 2026 • Age: 5 hours

当前状态

高度 470.1 km
速度 7.63 km/s
星下点 36.78°N, 4.96°W
发射日期 Mar 17, 2026
运行时间 0.1 years
类型 internet

技术详情

分类 Payload
质量 575.00 kg
干质量 530.00 kg
总质量 575.00 kg
长度 0.30 m
直径 4.10 m
跨度 29.00 m
形状 Box + pan
制造商 SPXS
平台类型 Starlink V2MO
阶段状态 In Orbit
所有者/国家 SPXS/US

Most Searched